EW7376 Weather Reports


Display with metric or nautical units.
time (UTC)temp
F
wind
direction
speed
MPH
gust
MPH
rain 1hr
in
rain 24hr
in
rain mn
in
humidity
%
barometer
mb
20260506044536 53 360 0.0 0.0 0.00 0.00 0.00 78 1010.9
20260506043036 53 43 0.0 0.0 0.00 0.00 0.00 78 1010.9
20260506041516 53 32 0.0 0.0 0.00 0.00 0.00 78 1010.9
20260506040032 53 308 0.0 0.0 0.00 0.00 0.00 79 1010.9
20260506034601 53 343 0.0 0.0 0.00 0.00 0.00 80 1010.6
20260506033058 53 328 0.0 0.0 0.00 0.00 0.00 80 1010.3
20260506031556 54 335 0.0 0.0 0.00 0.00 0.00 80 1009.8
20260506030057 54 340 0.0 0.0 0.00 0.00 0.00 79 1009.6
20260506024557 54 316 0.0 0.0 0.00 0.00 0.00 79 1009.7
20260506023057 55 319 0.0 0.0 0.00 0.00 0.00 80 1009.5
20260506021555 55 355 0.0 0.0 0.00 0.00 0.00 81 1008.9
20260506020048 55 321 0.0 0.0 0.00 0.00 0.00 81 1008.5
20260506014545 55 336 0.0 0.0 0.00 0.00 0.00 81 1008.3
20260506013040 55 319 0.0 0.0 0.00 0.00 0.00 81 1007.8
20260506011543 56 322 0.0 0.0 0.00 0.00 0.00 82 1007.5
20260506010050 56 296 0.0 0.0 0.00 0.00 0.00 83 1007.7
20260506004546 56 306 0.0 0.0 0.00 0.00 0.00 83 1007.3
20260506003035 57 318 0.0 0.0 0.00 0.00 0.00 83 1007.3
20260506001515 58 309 0.0 0.0 0.00 0.00 0.00 83 1007.1
20260506000013 58 325 0.0 0.0 0.00 0.00 0.00 82 1007.1
20260505234529 59 318 0.0 0.0 0.00 0.00 0.00 82 1006.6
20260505233008 60 321 0.0 0.0 0.00 0.00 0.00 81 1006.7
20260505231503 60 313 0.0 0.0 0.00 0.00 0.00 81 1006.8
20260505224557 62 322 0.0 0.0 0.00 0.00 0.00 80 1006.5
20260505223052 63 306 0.0 0.0 0.00 0.00 0.00 78 1006.2
20260505221536 65 309 0.0 0.0 0.00 0.00 0.00 77 1005.8
20260505220033 65 283 0.0 0.0 0.00 0.00 0.00 77 1005.5
20260505214557 65 300 0.0 0.0 0.00 0.00 0.00 76 1005.3
20260505213030 66 278 0.0 0.0 0.00 0.00 0.00 76 1005.1
20260505211531 66 333 0.0 0.0 0.00 0.00 0.00 76 1004.9
20260505210023 68 309 0.0 0.0 0.00 0.00 0.00 75 1004.9
20260505204520 69 292 0.0 0.0 0.00 0.00 0.00 74 1004.9
20260505203031 71 314 0.0 0.0 0.00 0.00 0.00 75 1004.5
20260505201618 71 267 0.0 0.0 0.00 0.00 0.00 74 1004.6
20260505200106 72 265 0.0 0.0 0.00 0.00 0.00 73 1004.6
20260505194606 73 290 0.0 0.0 0.00 0.00 0.00 72 1004.5
20260505193049 74 286 0.0 0.0 0.00 0.00 0.00 71 1004.3
20260505191542 75 270 0.0 0.0 0.00 0.00 0.00 68 1003.8
20260505190040 77 300 0.0 0.0 0.00 0.00 0.00 64 1003.4
20260505184537 80 264 0.0 0.0 0.00 0.00 0.00 49 1003.1
20260505183037 79 231 0.0 0.0 0.00 0.00 0.00 44 1003.3
20260505181534 79 215 0.0 0.0 0.00 0.00 0.00 54 1003.3
20260505180055 79 292 0.0 0.0 0.00 0.00 0.00 59 1003.3
20260505174549 79 252 0.0 0.0 0.00 0.00 0.00 60 1002.2
20260505173022 79 202 0.0 0.0 0.00 0.00 0.00 61 1002.1
20260505171522 79 219 0.0 0.0 0.00 0.00 0.00 62 1002.3
20260505170014 78 213 0.0 0.0 0.00 0.00 0.00 63 1002.4
20260505164515 79 227 0.0 0.0 0.00 0.00 0.00 62 1002.5
20260505163013 78 211 0.0 0.0 0.00 0.00 0.00 71 1001.8
20260505161504 76 212 0.0 0.0 0.00 0.00 0.00 75 1001.9
20260505153046 74 215 0.0 0.0 0.00 0.00 0.00 76 1001.4
20260505151543 74 197 0.0 0.0 0.00 0.00 0.00 77 1001.4
20260505124511 68 145 0.0 0.0 0.00 0.00 0.00 86 1001.1
20260505123011 69 146 0.0 0.0 0.00 0.00 0.00 85 1001.2
20260505121510 69 140 0.0 0.0 0.00 0.00 0.00 84 1000.9
20260505120015 69 123 0.0 0.0 0.00 0.00 0.00 83 1000.7
20260505114508 70 169 0.0 0.0 0.00 0.00 0.00 82 1000.5
20260505113110 70 141 0.0 0.0 0.00 0.00 0.00 81 1000.5
20260505111557 71 154 0.0 0.0 0.00 0.00 0.00 80 1000.3
20260505101554 72 157 0.0 0.0 0.00 0.00 0.00 78 1000.4
20260505100055 72 169 0.0 0.0 0.00 0.00 0.00 77 1000.5
20260505094553 72 175 0.0 0.0 0.00 0.00 0.00 78 1000.4
20260505093041 72 188 0.0 0.0 0.00 0.00 0.00 78 1000.4
20260505091544 72 150 0.0 0.0 0.00 0.00 0.00 78 1000.5
20260505090040 72 163 0.0 0.0 0.00 0.00 0.00 78 1000.6
20260505084537 72 155 0.0 0.0 0.00 0.00 0.00 77 1000.5
20260505083036 72 179 0.0 0.0 0.00 0.00 0.00 77 1000.5
20260505081538 73 170 0.0 0.0 0.00 0.00 0.00 76 1000.6
20260505080034 73 194 0.0 0.0 0.00 0.00 0.00 75 1000.8
20260505074532 73 149 0.0 0.0 0.00 0.00 0.00 75 1001.1
20260505073019 73 157 0.0 0.0 0.00 0.00 0.00 75 1001.1
20260505071517 73 145 0.0 0.0 0.00 0.00 0.00 75 1001.4
20260505070016 73 159 0.0 0.0 0.00 0.00 0.00 75 1001.7
20260505064513 73 140 0.0 0.0 0.00 0.00 0.00 76 1001.9
20260505063015 73 186 0.0 0.0 0.00 0.00 0.00 76 1002.1
20260505061512 73 183 0.0 0.0 0.00 0.00 0.00 76 1002.2
20260505060010 73 134 0.0 0.0 0.00 0.00 0.00 76 1002.3